GEFSNGP_850_meantemp_000.txt.gz
Temperature
5 5 5 5 4 4 3 2 1 1 1 1 1 1 0 -2 -4 -5 -5 -6 -8 -9 -9 -10 -10 -10 -10 -10 -10 -10 -10 -10 -10 -9 -9 -8 -8 -7 -6 -6 -5 -5 -4 -4
4 4 4 3 3 3 3 2 2 1 0 2 2 1 -1 -3 -5 -6 -6 -7 -8 -9 -10 -11 -11 -11 -11 -11 -11 -10 -10 -10 -10 -10 -9 -9 -9 -8 -7 -7 -6 -6 -5 -5
3 3 3 2 2 2 2 2 1 -0 1 1 0 -1 -2 -5 -6 -7 -7 -8 -9 -10 -11 -11 -12 -12 -12 -12 -11 -11 -11 -11 -11 -11 -10 -10 -10 -9 -8 -8 -7 -7 -7 -6
1 3 4 3 3 3 2 2 2 1 0 0 -1 -2 -4 -6 -6 -7 -8 -9 -10 -10 -11 -12 -12 -12 -12 -12 -12 -11 -11 -11 -11 -11 -11 -10 -10 -10 -9 -9 -8 -8 -8 -8
1 1 2 2 2 2 1 0 1 0 0 -1 -3 -3 -4 -5 -6 -8 -9 -9 -10 -11 -11 -12 -12 -12 -12 -12 -12 -12 -12 -12 -12 -12 -12 -11 -11 -11 -10 -10 -9 -9 -9 -9
-2 0 1 2 3 3 1 -1 1 0 -1 -3 -4 -3 -4 -6 -8 -8 -9 -10 -10 -11 -11 -12 -12 -13 -13 -13 -13 -13 -13 -13 -13 -13 -13 -13 -12 -12 -11 -11 -10 -10 -10 -10
-2 -0 0 2 3 2 -0 0 2 1 -2 -4 -5 -5 -6 -7 -8 -9 -10 -10 -10 -11 -12 -13 -13 -13 -14 -14 -14 -14 -14 -14 -14 -13 -13 -13 -13 -13 -12 -11 -11 -11 -11 -10
-0 -0 -0 3 2 -0 1 2 1 -0 -3 -4 -5 -6 -7 -8 -8 -9 -10 -10 -10 -11 -12 -13 -14 -14 -14 -15 -15 -15 -14 -14 -14 -14 -15 -14 -14 -13 -13 -12 -12 -12 -12 -11
1 1 2 3 2 2 2 1 0 -1 -3 -4 -6 -7 -8 -8 -9 -10 -10 -11 -11 -12 -12 -13 -14 -14 -15 -15 -15 -15 -15 -15 -15 -15 -15 -15 -15 -14 -14 -13 -13 -13 -13 -13
1 1 2 3 2 2 2 1 -1 -2 -4 -5 -7 -8 -8 -9 -9 -10 -11 -11 -12 -12 -13 -14 -14 -14 -15 -15 -15 -15 -15 -15 -15 -15 -15 -15 -15 -15 -15 -14 -14 -13 -13 -13
-0 1 2 3 2 1 1 -1 -2 -3 -5 -6 -7 -8 -9 -9 -10 -11 -11 -12 -12 -13 -13 -14 -14 -15 -15 -15 -15 -15 -15 -15 -15 -15 -15 -15 -15 -16 -15 -15 -14 -14 -14 -14
0 1 2 2 1 1 -1 -2 -3 -4 -6 -7 -8 -9 -9 -10 -10 -11 -11 -12 -12 -13 -14 -14 -14 -15 -15 -15 -15 -15 -15 -15 -16 -16 -16 -16 -16 -15 -15 -15 -15 -15 -14 -14
2 2 1 1 0 -0 -2 -4 -4 -5 -6 -8 -9 -9 -9 -10 -10 -11 -11 -12 -12 -13 -13 -14 -14 -14 -15 -15 -15 -15 -15 -15 -15 -16 -16 -16 -16 -16 -16 -15 -15 -16 -15 -15
1 1 1 0 -1 -2 -3 -4 -5 -6 -7 -8 -9 -9 -9 -10 -10 -11 -11 -12 -12 -13 -13 -13 -14 -14 -14 -15 -15 -15 -15 -15 -15 -15 -15 -15 -16 -15 -15 -15 -15 -15 -15 -15
1 1 0 -1 -2 -3 -5 -6 -6 -7 -8 -8 -9 -9 -9 -10 -10 -11 -11 -11 -11 -12 -12 -13 -13 -13 -14 -15 -15 -15 -15 -15 -15 -15 -15 -15 -15 -15 -15 -15 -15 -15 -15 -14
1 0 -1 -2 -3 -5 -6 -6 -7 -8 -8 -8 -9 -9 -10 -10 -11 -11 -11 -11 -12 -12 -12 -13 -13 -13 -14 -14 -14 -14 -14 -14 -14 -15 -14 -14 -14 -14 -15 -15 -15 -15 -15 -15
1 0 -1 -3 -4 -5 -6 -7 -7 -8 -8 -9 -9 -9 -10 -10 -10 -10 -10 -10 -11 -12 -12 -12 -13 -13 -14 -14 -14 -14 -13 -13 -14 -14 -14 -15 -15 -15 -15 -15 -15 -15 -15 -15
0 -0 -2 -3 -4 -5 -6 -7 -7 -8 -8 -9 -9 -10 -9 -9 -9 -10 -10 -10 -10 -10 -11 -12 -12 -13 -14 -13 -13 -13 -14 -14 -14 -14 -15 -15 -16 -16 -16 -16 -16 -15 -15 -15
-1 -2 -3 -4 -5 -6 -7 -7 -8 -8 -9 -9 -9 -9 -9 -9 -9 -10 -10 -10 -10 -10 -10 -10 -11 -13 -12 -12 -12 -13 -13 -13 -14 -14 -14 -15 -15 -15 -16 -16 -16 -16 -16 -15
-1 -3 -4 -4 -5 -6 -7 -7 -8 -8 -9 -9 -9 -9 -9 -9 -9 -9 -10 -10 -10 -10 -10 -10 -11 -11 -12 -12 -12 -12 -12 -12 -12 -13 -13 -14 -14 -15 -15 -15 -16 -16 -16 -16
-2 -3 -4 -5 -6 -7 -7 -7 -8 -8 -8 -9 -9 -8 -8 -9 -9 -10 -9 -9 -9 -9 -9 -10 -10 -11 -12 -12 -11 -10 -10 -11 -12 -12 -12 -13 -13 -13 -14 -14 -15 -15 -15 -16
-3 -4 -5 -6 -6 -7 -7 -8 -8 -8 -8 -9 -9 -8 -9 -8 -8 -9 -9 -9 -9 -9 -10 -10 -9 -11 -12 -10 -10 -10 -10 -11 -12 -12 -13 -13 -13 -13 -13 -13 -14 -15 -15 -15
-4 -4 -5 -6 -7 -7 -7 -8 -8 -8 -8 -9 -8 -8 -9 -9 -9 -9 -8 -9 -9 -9 -9 -9 -9 -10 -10 -10 -9 -10 -11 -11 -12 -12 -13 -13 -13 -13 -13 -13 -13 -14 -15 -15
-4 -5 -6 -6 -6 -7 -8 -8 -8 -8 -8 -9 -8 -8 -8 -8 -9 -9 -9 -9 -8 -8 -9 -9 -9 -9 -10 -9 -10 -10 -10 -11 -12 -13 -13 -12 -11 -12 -13 -13 -13 -14 -15 -15
-4 -5 -6 -6 -6 -7 -8 -8 -8 -8 -8 -9 -8 -8 -9 -9 -9 -8 -8 -8 -8 -8 -8 -8 -8 -9 -9 -10 -9 -9 -10 -11 -12 -13 -12 -11 -11 -11 -12 -12 -13 -14 -15 -15
-4 -5 -6 -6 -7 -7 -8 -8 -8 -8 -8 -8 -8 -9 -9 -9 -8 -8 -8 -8 -8 -8 -8 -8 -8 -9 -9 -9 -9 -9 -9 -10 -11 -12 -12 -11 -11 -11 -11 -11 -12 -13 -13 -14
-5 -6 -6 -6 -6 -7 -8 -8 -8 -8 -8 -8 -8 -8 -8 -8 -8 -8 -8 -7 -8 -8 -8 -8 -8 -9 -9 -9 -9 -9 -9 -9 -10 -11 -11 -11 -11 -12 -12 -12 -12 -12 -12 -12

GEFSNGP_850_meantemp_006.txt.gz
Temperature
4 4 4 4 4 3 2 1 1 0 0 -0 -1 -1 -1 -2 -4 -5 -7 -8 -9 -10 -10 -10 -10 -10 -11 -11 -12 -12 -12 -12 -12 -12 -13 -12 -12 -11 -11 -10 -9 -9 -8 -7
4 3 2 3 3 2 2 2 1 0 -0 0 1 -0 -1 -3 -5 -7 -8 -9 -9 -10 -10 -10 -11 -11 -12 -12 -12 -13 -13 -13 -13 -13 -13 -13 -13 -12 -12 -11 -10 -10 -9 -8
3 1 3 2 2 2 2 2 1 -0 -0 -0 -1 -1 -2 -4 -6 -7 -8 -9 -10 -10 -10 -11 -11 -12 -12 -13 -13 -13 -13 -14 -14 -14 -14 -14 -14 -13 -13 -12 -11 -11 -10 -9
1 1 4 3 2 2 2 1 0 -0 -1 0 -1 -2 -3 -5 -6 -7 -8 -10 -10 -10 -10 -11 -11 -12 -12 -13 -13 -13 -14 -14 -14 -14 -14 -14 -14 -14 -13 -13 -12 -12 -11 -10
-0 1 1 2 2 2 1 0 0 0 0 0 -1 -3 -4 -6 -7 -8 -9 -10 -10 -10 -11 -11 -12 -12 -13 -13 -13 -14 -14 -14 -14 -15 -14 -15 -15 -14 -14 -13 -13 -13 -12 -12
-1 2 3 4 2 2 1 -1 1 1 -0 -1 -3 -4 -5 -6 -7 -8 -9 -9 -10 -10 -11 -11 -12 -12 -13 -13 -14 -14 -14 -14 -14 -15 -15 -15 -15 -15 -14 -14 -14 -13 -13 -12
-2 -1 1 2 2 1 0 1 1 1 -0 -2 -4 -5 -6 -7 -7 -8 -8 -9 -9 -10 -10 -11 -12 -13 -13 -14 -14 -14 -14 -14 -14 -14 -15 -15 -15 -15 -14 -14 -14 -14 -13 -13
-2 -1 0 2 0 -0 1 2 1 -0 -1 -3 -4 -6 -7 -7 -8 -8 -8 -9 -9 -10 -10 -11 -12 -13 -13 -14 -14 -14 -14 -14 -14 -14 -15 -15 -15 -15 -14 -15 -15 -15 -14 -14
0 1 2 3 3 2 2 1 0 -1 -2 -3 -5 -6 -7 -7 -8 -8 -9 -9 -9 -10 -10 -11 -11 -13 -13 -14 -14 -14 -14 -14 -14 -14 -14 -15 -15 -15 -15 -15 -15 -15 -15 -15
-1 -1 2 2 2 2 1 0 -1 -2 -3 -4 -5 -6 -7 -7 -8 -8 -8 -9 -9 -10 -10 -10 -11 -12 -13 -13 -14 -14 -14 -14 -14 -14 -14 -14 -14 -15 -15 -15 -15 -15 -15 -15
-1 -0 1 2 2 1 0 -0 -1 -3 -4 -5 -6 -7 -7 -8 -8 -8 -9 -9 -9 -10 -10 -10 -11 -11 -12 -13 -14 -14 -14 -13 -13 -13 -14 -14 -14 -14 -15 -15 -15 -15 -15 -15
0 1 1 1 1 1 0 -1 -2 -3 -4 -5 -6 -7 -7 -8 -8 -8 -9 -9 -9 -10 -10 -10 -11 -11 -12 -13 -13 -13 -13 -13 -13 -14 -14 -15 -15 -15 -15 -15 -15 -15 -15 -15
3 3 2 1 1 0 -0 -1 -3 -4 -5 -6 -7 -7 -7 -8 -8 -8 -9 -9 -9 -10 -10 -10 -11 -11 -12 -12 -13 -13 -13 -13 -14 -15 -15 -15 -16 -15 -15 -15 -15 -15 -15 -15
2 2 1 1 0 -0 -1 -2 -4 -5 -6 -6 -7 -7 -8 -8 -8 -8 -9 -9 -9 -10 -10 -10 -10 -11 -11 -12 -12 -12 -12 -12 -14 -14 -15 -15 -15 -15 -15 -15 -15 -15 -15 -15
1 1 1 1 0 -1 -2 -4 -5 -6 -6 -6 -7 -7 -7 -7 -8 -8 -9 -9 -9 -9 -9 -10 -10 -10 -11 -11 -11 -11 -12 -12 -14 -14 -14 -14 -15 -15 -15 -15 -16 -16 -15 -15
1 1 1 0 -0 -2 -4 -5 -5 -6 -6 -7 -7 -7 -7 -7 -8 -8 -9 -9 -9 -9 -9 -9 -9 -10 -10 -11 -11 -11 -12 -13 -13 -14 -14 -14 -14 -14 -15 -15 -15 -16 -16 -16
1 1 0 0 -1 -3 -4 -5 -5 -6 -6 -6 -7 -7 -7 -7 -7 -8 -8 -8 -8 -9 -9 -9 -9 -10 -10 -10 -11 -12 -12 -12 -12 -12 -14 -14 -14 -14 -14 -14 -15 -15 -16 -16
1 1 1 -0 -2 -3 -4 -5 -5 -6 -6 -6 -7 -7 -7 -7 -7 -8 -8 -8 -7 -8 -8 -9 -9 -10 -10 -10 -11 -11 -11 -11 -12 -13 -14 -14 -14 -14 -14 -14 -14 -15 -16 -16
1 1 0 -1 -3 -3 -4 -5 -5 -6 -6 -6 -7 -7 -7 -8 -8 -8 -8 -8 -7 -8 -8 -8 -9 -9 -9 -10 -10 -10 -11 -11 -12 -13 -13 -14 -14 -14 -14 -14 -15 -15 -15 -16
0 0 -1 -2 -3 -3 -4 -5 -5 -6 -6 -6 -7 -7 -7 -8 -8 -7 -7 -7 -8 -8 -8 -9 -9 -9 -10 -10 -9 -9 -10 -11 -13 -13 -13 -12 -13 -13 -14 -14 -14 -15 -15 -16
0 -0 -2 -3 -3 -4 -4 -5 -5 -6 -6 -6 -7 -7 -7 -7 -7 -7 -7 -6 -7 -7 -8 -9 -9 -10 -10 -9 -9 -9 -10 -11 -12 -13 -13 -12 -12 -13 -14 -14 -14 -15 -15 -16
0 -1 -2 -3 -3 -4 -4 -5 -6 -6 -6 -6 -7 -7 -7 -7 -7 -7 -7 -7 -7 -7 -8 -8 -8 -10 -10 -9 -9 -9 -10 -11 -12 -13 -12 -12 -12 -12 -13 -13 -14 -15 -15 -15
-0 -1 -2 -3 -3 -4 -5 -5 -6 -6 -6 -7 -7 -7 -7 -7 -7 -7 -6 -7 -7 -7 -8 -8 -8 -9 -9 -9 -9 -9 -9 -10 -11 -12 -12 -12 -12 -12 -12 -13 -13 -14 -14 -14
-1 -2 -2 -3 -4 -4 -5 -5 -6 -6 -6 -7 -7 -7 -7 -7 -7 -7 -7 -7 -7 -7 -7 -8 -8 -8 -9 -9 -9 -9 -9 -9 -10 -11 -11 -12 -12 -12 -12 -12 -12 -13 -13 -13
-1 -2 -3 -3 -4 -4 -5 -6 -6 -6 -6 -7 -7 -7 -7 -7 -7 -7 -7 -7 -7 -7 -7 -7 -7 -8 -8 -9 -9 -9 -9 -9 -10 -10 -10 -11 -11 -11 -12 -12 -12 -12 -13 -13
-2 -2 -3 -3 -4 -5 -5 -5 -6 -6 -6 -7 -7 -7 -7 -7 -7 -7 -7 -7 -7 -7 -7 -7 -7 -7 -8 -8 -9 -9 -9 -9 -9 -9 -10 -10 -10 -10 -11 -11 -12 -12 -12 -13
-2 -3 -4 -4 -5 -5 -5 -6 -6 -6 -6 -7 -7 -7 -7 -7 -7 -7 -7 -7 -7 -7 -7 -7 -7 -7 -8 -8 -9 -9 -9 -9 -9 -9 -9 -9 -10 -10 -10 -10 -10 -11 -11 -12

GEFSNGP_850_meantemp_012.txt.gz
Temperature
9 7 7 8 8 7 7 8 8 9 7 6 5 3 2 0 -2 -3 -5 -6 -7 -8 -9 -9 -10 -10 -10 -10 -11 -11 -12 -12 -13 -13 -13 -14 -14 -14 -14 -14 -14 -13 -13 -12
9 6 6 6 7 7 7 7 6 6 6 5 3 3 2 -0 -3 -4 -6 -7 -8 -8 -9 -10 -10 -9 -10 -10 -11 -11 -12 -13 -13 -13 -13 -14 -14 -14 -14 -14 -14 -14 -13 -13
11 8 8 10 9 7 6 6 6 6 6 4 3 2 0 -2 -4 -6 -7 -8 -8 -9 -9 -9 -9 -9 -9 -10 -11 -12 -12 -12 -13 -13 -13 -14 -14 -15 -15 -15 -14 -14 -14 -14
9 10 10 11 5 6 6 6 5 5 4 3 2 0 -2 -4 -6 -7 -8 -8 -8 -8 -8 -9 -9 -9 -10 -10 -11 -12 -12 -13 -13 -13 -14 -14 -14 -15 -15 -15 -15 -15 -14 -14
8 9 11 7 5 5 5 6 4 4 3 2 1 -0 -2 -5 -7 -8 -8 -8 -8 -8 -8 -8 -9 -9 -10 -10 -12 -12 -13 -13 -13 -14 -15 -15 -15 -15 -15 -15 -15 -15 -14 -14
6 8 11 10 5 3 5 5 4 3 3 1 -0 1 -1 -6 -7 -7 -7 -7 -7 -8 -8 -9 -9 -9 -10 -11 -11 -12 -12 -13 -13 -14 -15 -15 -15 -15 -15 -15 -15 -14 -14 -14
6 7 11 6 3 3 5 7 3 2 1 -0 -1 -2 -5 -6 -7 -7 -7 -7 -7 -8 -8 -9 -9 -9 -10 -10 -11 -11 -12 -12 -13 -14 -15 -15 -15 -15 -15 -15 -15 -14 -14 -14
7 7 9 3 3 5 6 2 2 1 -0 -2 -3 -5 -6 -6 -6 -6 -6 -7 -7 -7 -8 -9 -9 -10 -10 -11 -11 -11 -12 -12 -13 -13 -14 -15 -15 -15 -15 -15 -15 -14 -14 -13
9 10 5 3 4 3 3 2 1 -0 -1 -2 -4 -5 -6 -6 -6 -6 -7 -7 -7 -7 -8 -8 -9 -10 -10 -11 -11 -11 -11 -12 -13 -13 -14 -15 -15 -15 -15 -15 -15 -14 -14 -13
6 7 4 2 2 2 2 1 1 -0 -1 -3 -4 -5 -5 -6 -6 -6 -7 -7 -7 -7 -8 -9 -9 -10 -10 -10 -11 -11 -12 -13 -13 -14 -14 -14 -14 -14 -14 -14 -14 -14 -14 -14
6 5 2 1 1 2 2 1 0 -1 -2 -3 -4 -5 -5 -6 -6 -6 -7 -7 -7 -8 -8 -9 -9 -10 -10 -10 -10 -11 -12 -13 -14 -14 -14 -14 -14 -14 -14 -14 -14 -14 -14 -14
8 6 4 3 2 2 1 1 -0 -1 -3 -4 -4 -5 -6 -6 -6 -6 -6 -7 -7 -8 -8 -9 -9 -9 -9 -10 -10 -11 -12 -13 -14 -14 -14 -14 -14 -14 -14 -14 -14 -15 -15 -15
4 4 4 3 2 2 1 0 -1 -2 -3 -4 -5 -5 -5 -6 -6 -6 -6 -7 -7 -8 -8 -9 -9 -9 -9 -9 -10 -11 -12 -13 -13 -14 -14 -14 -14 -14 -14 -14 -15 -15 -15 -15
4 4 3 2 2 1 0 -1 -2 -3 -4 -4 -5 -5 -6 -6 -6 -6 -6 -7 -7 -8 -8 -8 -9 -9 -9 -9 -10 -11 -12 -12 -13 -14 -14 -14 -14 -14 -14 -14 -14 -15 -15 -15
3 3 3 2 2 1 -0 -1 -2 -3 -4 -4 -5 -5 -6 -6 -6 -6 -6 -7 -7 -7 -8 -8 -8 -9 -9 -9 -10 -11 -11 -12 -13 -13 -13 -14 -14 -14 -14 -14 -15 -15 -15 -15
2 2 2 2 1 1 -0 -2 -3 -3 -4 -5 -5 -5 -5 -6 -6 -6 -6 -7 -7 -7 -7 -8 -8 -9 -9 -9 -10 -10 -11 -11 -12 -13 -13 -13 -14 -14 -15 -15 -15 -15 -15 -15
2 1 1 1 1 0 -1 -2 -2 -3 -4 -5 -5 -5 -5 -6 -6 -6 -6 -7 -7 -7 -7 -8 -8 -8 -9 -9 -9 -10 -10 -11 -11 -12 -13 -13 -13 -14 -14 -15 -15 -15 -15 -15
5 5 4 3 2 1 -1 -2 -3 -3 -4 -5 -5 -5 -5 -5 -5 -6 -6 -6 -6 -7 -7 -7 -8 -8 -9 -9 -9 -9 -9 -10 -11 -12 -13 -13 -13 -13 -13 -14 -15 -15 -15 -16
3 3 2 1 1 0 -0 -2 -3 -4 -4 -5 -5 -5 -5 -5 -5 -6 -6 -6 -6 -6 -6 -7 -8 -8 -8 -9 -9 -9 -9 -9 -10 -11 -12 -12 -13 -13 -13 -13 -14 -15 -15 -15
2 2 1 1 1 0 -1 -2 -3 -4 -4 -5 -5 -5 -5 -5 -6 -6 -6 -6 -6 -6 -6 -7 -7 -8 -8 -9 -9 -9 -9 -9 -9 -10 -11 -12 -12 -12 -12 -13 -13 -14 -14 -14
2 1 1 1 0 -1 -2 -2 -3 -4 -4 -5 -5 -5 -5 -5 -6 -6 -6 -6 -6 -6 -6 -7 -7 -7 -8 -9 -9 -9 -9 -9 -9 -10 -10 -11 -11 -11 -12 -12 -12 -13 -13 -13
1 1 1 1 -0 -1 -2 -3 -4 -4 -4 -5 -5 -5 -5 -5 -6 -6 -6 -6 -6 -6 -6 -6 -6 -7 -8 -8 -8 -9 -9 -9 -9 -9 -10 -10 -10 -10 -11 -11 -11 -12 -12 -13
1 1 1 0 -0 -1 -2 -3 -4 -4 -5 -5 -5 -5 -5 -5 -5 -5 -5 -6 -6 -6 -6 -6 -6 -7 -7 -7 -8 -8 -9 -9 -9 -9 -9 -9 -10 -10 -10 -10 -10 -10 -11 -11
1 1 0 -0 -1 -2 -2 -3 -4 -4 -5 -5 -5 -5 -5 -5 -5 -5 -5 -6 -6 -6 -6 -6 -6 -6 -7 -7 -7 -7 -8 -8 -9 -9 -9 -9 -9 -10 -10 -10 -10 -9 -9 -10
1 1 0 -0 -1 -2 -2 -3 -4 -4 -5 -5 -5 -5 -5 -5 -5 -5 -6 -6 -6 -6 -6 -6 -6 -6 -6 -6 -7 -7 -8 -8 -9 -9 -9 -9 -9 -10 -10 -10 -10 -10 -10 -9
1 1 0 0 -0 -1 -2 -3 -3 -4 -5 -5 -5 -5 -5 -6 -6 -5 -6 -6 -6 -6 -6 -6 -6 -6 -6 -6 -6 -7 -7 -7 -8 -8 -8 -9 -9 -9 -10 -10 -10 -10 -10 -10
1 0 -0 -1 -2 -2 -3 -3 -3 -4 -4 -5 -5 -5 -6 -6 -6 -6 -6 -6 -6 -6 -6 -6 -6 -6 -6 -6 -6 -7 -7 -7 -7 -8 -8 -8 -8 -9 -10 -10 -10 -10 -10 -10

GEFSNGP_850_meantemp_018.txt.gz
Temperature
13 13 12 11 10 11 10 9 9 10 9 7 5 5 4 2 1 -1 -2 -4 -4 -5 -5 -6 -7 -7 -8 -9 -9 -10 -10 -11 -12 -12 -13 -13 -14 -14 -14 -14 -14 -14 -14 -14
12 13 11 9 9 9 9 9 9 9 8 5 6 5 4 1 -1 -2 -3 -4 -5 -5 -5 -6 -7 -8 -8 -9 -9 -10 -11 -12 -12 -13 -13 -14 -14 -14 -14 -14 -14 -14 -14 -14
10 13 12 10 12 10 9 9 9 9 7 6 5 4 2 0 -2 -3 -4 -4 -5 -5 -6 -7 -7 -8 -9 -9 -9 -10 -11 -12 -12 -13 -13 -14 -14 -14 -14 -14 -14 -14 -14 -14
9 10 10 12 8 10 10 10 10 9 7 6 4 3 1 -1 -2 -3 -4 -4 -5 -5 -6 -7 -8 -8 -8 -9 -10 -11 -11 -12 -12 -13 -13 -14 -14 -14 -14 -14 -14 -14 -14 -13
8 8 9 10 8 8 8 8 9 8 7 5 4 2 -2 -2 -2 -3 -4 -4 -5 -6 -6 -7 -7 -8 -8 -9 -10 -11 -11 -12 -12 -13 -13 -13 -13 -14 -14 -14 -14 -14 -14 -13
7 7 8 11 8 8 8 6 7 7 5 4 2 -0 -2 -2 -3 -3 -4 -4 -5 -6 -6 -7 -7 -8 -8 -9 -10 -11 -11 -12 -12 -13 -13 -13 -13 -13 -14 -14 -14 -13 -13 -13
6 6 8 8 7 7 6 7 6 5 4 3 2 -0 -2 -3 -3 -3 -4 -4 -5 -6 -6 -7 -8 -8 -8 -9 -10 -11 -11 -12 -12 -13 -13 -13 -13 -13 -13 -14 -13 -13 -13 -13
8 7 8 6 5 5 6 6 5 4 3 2 1 -1 -2 -3 -3 -3 -4 -5 -5 -6 -6 -7 -8 -8 -8 -9 -10 -10 -11 -12 -12 -13 -13 -13 -13 -13 -13 -14 -14 -13 -13 -13
10 10 9 7 7 7 6 5 4 3 2 1 -0 -2 -3 -3 -3 -4 -4 -5 -5 -6 -6 -7 -7 -8 -8 -9 -9 -10 -11 -11 -12 -13 -13 -13 -13 -13 -13 -13 -13 -14 -14 -14
8 9 9 8 7 5 5 5 4 3 2 1 -1 -2 -2 -3 -3 -4 -4 -5 -5 -6 -6 -7 -7 -8 -8 -9 -9 -9 -11 -11 -12 -12 -13 -13 -13 -13 -13 -13 -13 -14 -14 -14
7 9 8 7 6 5 4 4 3 2 1 0 -1 -2 -2 -3 -3 -4 -4 -5 -5 -6 -6 -7 -7 -7 -8 -8 -9 -9 -10 -11 -12 -12 -13 -13 -13 -14 -13 -13 -13 -14 -14 -14
9 11 8 7 6 4 4 3 3 2 1 -0 -1 -2 -2 -3 -3 -4 -5 -5 -5 -6 -6 -7 -7 -7 -8 -8 -8 -9 -10 -11 -12 -12 -13 -13 -13 -13 -14 -14 -14 -14 -14 -14
11 9 9 8 5 4 3 3 2 2 1 -0 -1 -2 -2 -3 -3 -4 -5 -5 -5 -6 -6 -6 -7 -7 -8 -8 -8 -9 -10 -11 -11 -12 -12 -13 -13 -13 -14 -14 -14 -14 -14 -14
10 8 6 5 4 3 3 2 2 1 -0 -1 -1 -2 -2 -3 -3 -4 -4 -5 -5 -6 -6 -6 -7 -7 -7 -8 -8 -9 -9 -10 -11 -11 -12 -12 -12 -13 -13 -14 -14 -14 -14 -14
8 7 7 5 4 3 2 2 1 1 -0 -1 -2 -2 -3 -3 -3 -4 -4 -5 -5 -5 -6 -6 -6 -7 -7 -7 -8 -8 -9 -9 -10 -10 -11 -12 -12 -12 -13 -13 -14 -14 -14 -14
6 4 4 4 4 4 3 2 1 1 -0 -1 -2 -2 -3 -3 -4 -4 -4 -4 -5 -5 -5 -6 -6 -6 -7 -7 -8 -8 -9 -9 -9 -10 -10 -11 -11 -12 -12 -12 -13 -13 -14 -14
5 3 2 3 4 4 3 3 2 1 -0 -1 -2 -2 -3 -3 -4 -4 -4 -4 -5 -5 -5 -5 -6 -6 -7 -7 -8 -8 -8 -9 -9 -9 -9 -10 -11 -11 -11 -11 -12 -12 -13 -13
8 8 8 7 5 4 3 2 1 1 -0 -1 -2 -2 -3 -3 -4 -4 -4 -4 -5 -5 -5 -5 -6 -6 -6 -7 -7 -8 -8 -8 -9 -9 -9 -9 -10 -10 -10 -11 -11 -11 -11 -12
6 5 5 5 5 4 4 3 2 1 -1 -1 -2 -2 -3 -3 -4 -4 -4 -4 -5 -5 -5 -5 -5 -6 -6 -6 -7 -7 -8 -8 -8 -8 -9 -9 -9 -10 -10 -10 -10 -10 -10 -11
6 5 5 4 4 4 3 2 1 0 -0 -1 -2 -3 -3 -3 -4 -4 -4 -4 -4 -5 -5 -5 -5 -5 -5 -6 -6 -7 -7 -7 -7 -8 -8 -8 -9 -9 -10 -10 -10 -10 -10 -10
5 5 4 4 4 3 2 2 1 1 -0 -1 -2 -2 -3 -3 -4 -4 -4 -4 -4 -5 -5 -5 -5 -5 -5 -6 -6 -6 -7 -7 -7 -7 -8 -8 -9 -9 -10 -10 -10 -10 -10 -10
6 5 4 4 3 3 2 2 1 0 -0 -1 -2 -3 -3 -4 -4 -4 -4 -4 -4 -4 -5 -5 -5 -5 -5 -6 -6 -6 -6 -6 -6 -7 -7 -8 -8 -9 -9 -10 -11 -11 -11 -11
6 5 4 4 3 3 2 1 1 0 -1 -1 -2 -3 -3 -3 -4 -4 -4 -4 -4 -4 -5 -5 -5 -5 -5 -5 -6 -6 -6 -6 -6 -6 -7 -7 -8 -8 -9 -9 -10 -11 -11 -11
6 4 4 3 3 2 2 1 1 -0 -1 -2 -2 -3 -3 -4 -4 -4 -4 -4 -4 -5 -5 -5 -5 -5 -5 -5 -5 -6 -6 -6 -6 -6 -6 -6 -7 -7 -7 -8 -9 -10 -11 -12
5 4 3 3 3 2 2 1 1 -0 -1 -2 -3 -3 -4 -4 -4 -4 -4 -4 -5 -5 -5 -5 -5 -5 -5 -5 -5 -5 -6 -6 -6 -6 -6 -6 -6 -7 -7 -7 -8 -9 -10 -11
5 4 3 3 3 3 2 1 1 -0 -1 -2 -3 -3 -4 -4 -4 -5 -5 -5 -5 -5 -5 -5 -5 -5 -5 -5 -5 -5 -6 -6 -6 -6 -6 -6 -6 -7 -6 -7 -7 -8 -9 -10
4 3 3 2 2 2 2 1 1 0 -0 -1 -2 -2 -3 -4 -4 -5 -5 -5 -5 -5 -5 -5 -5 -5 -5 -5 -5 -6 -6 -6 -6 -6 -6 -6 -6 -7 -7 -6 -7 -7 -8 -9

GEFSNGP_850_meantemp_024.txt.gz
Temperature
9 9 9 9 9 8 7 7 7 7 7 6 3 2 1 1 -1 -2 -3 -3 -3 -3 -4 -5 -5 -6 -7 -8 -9 -10 -10 -11 -11 -12 -12 -13 -13 -13 -13 -13 -13 -13 -13 -12
9 9 8 9 8 7 7 7 6 7 7 5 3 2 1 -0 -1 -2 -3 -3 -3 -3 -4 -5 -6 -7 -8 -8 -9 -10 -10 -11 -11 -12 -12 -13 -13 -13 -13 -13 -13 -13 -12 -12
8 7 9 10 10 7 7 6 6 7 6 2 1 0 -0 -0 -1 -2 -2 -2 -3 -4 -4 -5 -6 -7 -8 -8 -9 -9 -10 -11 -11 -12 -13 -13 -13 -13 -13 -13 -13 -13 -12 -12
6 8 12 12 9 8 8 7 6 6 5 3 2 1 1 -0 -1 -1 -2 -2 -3 -4 -5 -5 -6 -7 -8 -8 -8 -9 -10 -10 -11 -12 -12 -13 -13 -13 -13 -13 -13 -13 -13 -12
5 7 8 9 8 8 8 7 7 5 3 1 1 -0 -2 -2 -2 -1 -2 -3 -3 -4 -5 -5 -6 -7 -7 -8 -8 -9 -10 -10 -11 -11 -12 -13 -13 -13 -13 -13 -13 -13 -13 -13
4 8 9 12 8 8 8 7 7 6 2 -1 -2 -1 -1 -1 -2 -2 -2 -3 -4 -4 -5 -5 -6 -7 -7 -7 -8 -9 -9 -10 -11 -11 -12 -12 -13 -13 -13 -13 -13 -13 -13 -13
4 5 8 9 7 8 8 9 8 7 5 2 0 1 2 0 -1 -2 -3 -3 -4 -5 -5 -5 -6 -6 -7 -7 -8 -9 -9 -10 -10 -11 -11 -12 -12 -13 -13 -13 -13 -13 -13 -13
3 4 7 8 5 6 8 9 9 8 7 4 4 2 1 -0 -1 -2 -3 -4 -4 -5 -5 -5 -6 -6 -7 -7 -8 -8 -8 -9 -10 -11 -11 -12 -12 -12 -13 -13 -13 -13 -13 -13
6 10 11 10 11 12 10 9 8 8 6 5 4 2 1 -1 -1 -2 -3 -4 -4 -4 -5 -5 -6 -6 -7 -7 -8 -8 -8 -8 -9 -10 -11 -11 -12 -12 -13 -13 -13 -13 -13 -13
6 8 10 11 11 11 10 9 8 7 6 5 4 2 0 -1 -1 -2 -3 -4 -4 -4 -5 -5 -6 -6 -7 -7 -7 -8 -8 -8 -9 -9 -10 -11 -11 -12 -12 -13 -13 -13 -13 -13
6 7 10 12 13 12 9 8 7 6 5 4 3 2 0 -0 -1 -2 -3 -3 -4 -4 -5 -5 -6 -6 -7 -7 -7 -7 -8 -8 -8 -9 -10 -10 -11 -11 -12 -12 -13 -13 -13 -13
11 13 11 14 14 12 10 8 6 5 4 3 2 2 0 -1 -1 -2 -3 -3 -4 -4 -4 -5 -5 -6 -6 -7 -7 -7 -8 -8 -8 -9 -9 -10 -10 -10 -10 -11 -12 -12 -13 -13
16 15 14 13 12 11 10 8 6 5 5 3 2 1 0 -1 -1 -2 -3 -3 -4 -4 -4 -5 -5 -6 -6 -7 -7 -7 -8 -8 -8 -9 -9 -10 -10 -10 -10 -10 -10 -11 -12 -12
15 14 12 12 11 11 9 7 5 4 3 3 2 1 -0 -1 -1 -2 -2 -3 -3 -4 -4 -4 -5 -5 -6 -6 -7 -7 -7 -8 -8 -8 -9 -9 -9 -10 -10 -10 -10 -10 -11 -11
14 13 12 11 10 9 8 6 4 3 3 2 1 1 -0 -1 -1 -2 -2 -3 -3 -4 -4 -4 -5 -5 -5 -6 -6 -7 -7 -7 -8 -8 -8 -9 -9 -9 -9 -10 -10 -10 -10 -10
15 12 10 9 9 8 7 5 4 3 3 2 1 1 -0 -1 -2 -2 -2 -3 -3 -3 -4 -4 -4 -5 -5 -5 -6 -6 -6 -7 -7 -7 -8 -8 -8 -9 -9 -10 -10 -10 -10 -10
12 11 10 9 8 8 7 6 5 4 3 3 2 1 -1 -1 -2 -2 -2 -3 -3 -3 -3 -4 -4 -4 -5 -5 -5 -6 -6 -6 -7 -7 -7 -7 -7 -8 -9 -9 -10 -10 -10 -11
15 14 13 12 11 9 7 6 5 4 4 3 2 0 -1 -1 -1 -2 -2 -3 -3 -3 -3 -4 -4 -4 -4 -5 -5 -5 -6 -6 -6 -6 -6 -6 -7 -7 -8 -9 -10 -10 -11 -11
17 15 12 11 9 8 8 7 6 4 3 2 1 1 0 -1 -1 -2 -2 -2 -3 -3 -3 -3 -4 -4 -4 -5 -5 -5 -5 -5 -5 -5 -5 -6 -6 -7 -7 -8 -9 -10 -11 -12
17 15 13 10 9 8 7 6 6 4 3 2 1 0 -0 -1 -2 -2 -2 -2 -2 -3 -3 -3 -4 -4 -4 -4 -5 -5 -5 -5 -5 -5 -5 -5 -6 -6 -6 -7 -8 -9 -10 -11
17 16 14 11 9 8 7 6 5 4 3 2 1 1 0 -1 -2 -2 -2 -2 -2 -3 -3 -3 -4 -4 -4 -4 -5 -5 -5 -5 -5 -5 -5 -5 -6 -6 -6 -7 -7 -8 -9 -10
17 15 14 11 9 8 7 6 5 4 3 2 2 1 -0 -1 -2 -2 -2 -2 -3 -3 -3 -3 -4 -4 -4 -4 -4 -5 -5 -5 -5 -5 -5 -6 -6 -6 -6 -7 -7 -8 -8 -9
16 15 13 12 10 8 6 6 5 4 3 3 2 1 0 -1 -1 -1 -2 -2 -3 -3 -3 -3 -4 -4 -4 -4 -4 -5 -5 -5 -5 -5 -6 -6 -6 -6 -7 -7 -7 -7 -8 -9
15 14 13 11 8 7 6 5 5 4 3 2 2 1 1 -0 -1 -2 -2 -3 -3 -3 -3 -3 -4 -4 -4 -4 -5 -5 -5 -5 -5 -6 -6 -6 -6 -7 -7 -7 -7 -7 -8 -8
15 13 12 10 9 8 6 5 4 3 2 2 1 1 -0 -1 -1 -1 -2 -3 -3 -3 -3 -3 -4 -4 -4 -4 -5 -5 -5 -5 -6 -6 -6 -6 -7 -7 -7 -7 -8 -8 -8 -8
14 13 13 12 10 9 7 5 4 3 3 2 1 1 -0 -1 -2 -2 -3 -3 -3 -3 -3 -4 -4 -4 -4 -5 -5 -5 -5 -6 -6 -6 -6 -7 -7 -7 -7 -8 -8 -8 -8 -8
12 12 11 9 8 7 6 5 4 4 3 3 2 2 1 -1 -2 -2 -3 -3 -3 -3 -4 -4 -4 -4 -4 -5 -5 -5 -5 -6 -6 -6 -7 -7 -7 -7 -8 -8 -8 -8 -8 -8

GEFSNGP_850_meantemp_030.txt.gz
Temperature
7 8 8 8 8 6 6 6 7 7 7 9 7 4 3 2 1 0 -0 -1 -1 -2 -3 -3 -4 -5 -5 -5 -6 -6 -6 -7 -8 -9 -10 -10 -11 -12 -12 -12 -12 -12 -12 -11
8 8 7 6 6 6 6 6 5 6 8 7 4 4 2 1 1 0 0 -0 -1 -2 -3 -3 -4 -5 -5 -5 -6 -6 -6 -7 -8 -9 -10 -10 -11 -12 -12 -12 -12 -12 -12 -12
8 7 8 10 10 6 6 5 6 7 9 5 3 2 2 2 1 1 1 -0 -1 -2 -3 -3 -4 -4 -5 -5 -5 -6 -6 -7 -8 -9 -9 -10 -11 -12 -12 -12 -13 -13 -12 -12
6 8 13 13 9 8 8 8 5 6 6 5 5 4 4 4 3 2 1 -0 -1 -2 -3 -3 -4 -5 -5 -5 -6 -6 -6 -7 -8 -9 -9 -10 -10 -11 -12 -12 -13 -13 -13 -13
6 8 9 10 9 8 8 9 7 6 6 4 2 2 2 3 3 2 1 -0 -1 -2 -3 -3 -4 -5 -5 -5 -6 -6 -6 -7 -8 -9 -9 -10 -10 -11 -12 -12 -12 -13 -13 -13
5 10 11 13 8 8 9 9 10 8 6 2 -0 1 3 5 3 1 -0 -1 -2 -2 -3 -3 -4 -4 -5 -5 -6 -6 -6 -7 -8 -9 -9 -9 -10 -10 -11 -12 -12 -13 -13 -13
4 6 9 9 7 8 10 11 13 12 10 5 2 5 6 5 3 1 0 -1 -2 -2 -3 -3 -4 -4 -5 -5 -5 -6 -7 -7 -8 -8 -9 -9 -10 -10 -10 -11 -11 -12 -12 -12
3 5 8 9 5 7 12 14 13 12 11 10 9 6 5 5 3 1 0 -1 -1 -2 -3 -3 -4 -4 -5 -5 -5 -6 -6 -7 -8 -8 -9 -9 -10 -10 -10 -10 -11 -11 -12 -12
7 10 12 11 13 16 15 14 13 12 11 10 8 6 5 4 3 1 0 -1 -1 -2 -2 -3 -3 -4 -4 -5 -5 -6 -6 -7 -7 -8 -8 -9 -9 -10 -10 -10 -10 -11 -11 -11
5 7 10 12 14 15 14 14 13 12 10 9 9 7 5 4 2 1 0 -1 -1 -2 -2 -3 -3 -4 -4 -5 -5 -6 -6 -6 -7 -7 -7 -8 -9 -9 -10 -10 -11 -11 -11 -11
5 7 11 15 18 18 17 15 14 12 10 9 8 7 6 4 3 2 0 -0 -1 -2 -2 -3 -3 -4 -4 -5 -5 -5 -6 -6 -6 -7 -7 -7 -7 -8 -9 -10 -11 -11 -11 -11
12 14 12 17 18 17 16 15 14 13 11 8 7 7 5 4 3 2 1 -0 -1 -2 -2 -3 -3 -4 -4 -5 -5 -5 -6 -6 -6 -6 -6 -7 -7 -7 -8 -9 -10 -10 -11 -11
17 18 17 17 17 16 15 14 13 12 11 9 7 6 5 4 3 1 1 -0 -1 -1 -2 -3 -3 -4 -4 -4 -5 -5 -5 -6 -6 -6 -6 -6 -6 -7 -6 -7 -8 -9 -10 -10
17 17 16 17 17 16 14 13 12 11 10 8 7 6 4 4 3 2 1 0 -1 -2 -2 -3 -3 -3 -4 -4 -5 -5 -5 -6 -6 -6 -6 -6 -6 -6 -7 -7 -7 -8 -9 -10
15 16 16 16 16 15 13 12 11 11 9 7 6 5 4 4 3 2 1 -0 -1 -2 -2 -2 -3 -3 -4 -4 -4 -5 -5 -5 -5 -5 -5 -5 -6 -6 -6 -7 -8 -8 -9 -10
16 16 15 15 15 14 13 12 11 11 9 8 6 5 4 4 3 2 1 -0 -1 -1 -1 -2 -3 -3 -4 -4 -4 -5 -5 -5 -5 -5 -5 -5 -5 -6 -6 -6 -7 -8 -9 -10
14 15 15 15 16 15 14 14 13 11 10 8 7 5 4 3 2 1 0 -0 -0 -1 -2 -2 -3 -3 -3 -4 -4 -4 -5 -5 -5 -5 -5 -5 -5 -6 -6 -6 -7 -7 -8 -9
17 18 18 17 16 15 14 13 12 11 10 9 7 5 4 3 3 2 1 -0 -1 -1 -2 -2 -3 -3 -3 -4 -4 -4 -5 -5 -5 -5 -5 -5 -6 -6 -6 -6 -7 -7 -7 -8
18 19 19 18 17 15 14 13 12 11 10 8 7 5 4 4 3 2 1 -0 -1 -1 -1 -2 -2 -3 -3 -3 -4 -4 -4 -5 -5 -5 -5 -5 -6 -6 -6 -6 -7 -7 -7 -8
18 19 19 19 19 17 16 14 12 11 10 8 7 5 4 4 3 2 1 0 0 0 -1 -2 -2 -3 -3 -3 -4 -4 -4 -5 -5 -5 -5 -6 -6 -6 -6 -6 -7 -7 -7 -8
19 19 20 20 20 19 17 15 12 11 10 9 7 6 5 4 3 2 1 0 0 -1 -2 -2 -2 -2 -3 -3 -4 -4 -4 -5 -5 -5 -5 -6 -6 -6 -6 -7 -7 -7 -8 -8
19 20 20 20 20 19 17 15 13 11 10 9 7 6 4 4 3 2 2 1 1 -0 -1 -2 -2 -2 -3 -3 -4 -4 -4 -5 -5 -5 -5 -6 -6 -6 -7 -7 -7 -8 -8 -8
19 19 20 20 19 17 15 14 12 11 10 9 8 7 5 4 4 3 2 2 1 -1 -1 -2 -2 -3 -3 -3 -3 -4 -4 -4 -5 -5 -6 -6 -6 -6 -7 -7 -7 -8 -8 -8
15 16 16 16 15 14 14 14 12 11 10 9 8 7 6 4 4 3 3 2 1 -0 -1 -1 -2 -3 -3 -3 -3 -4 -4 -4 -5 -5 -6 -6 -6 -7 -7 -7 -8 -8 -8 -9
12 13 14 13 13 14 14 13 11 10 9 8 7 6 5 5 4 4 3 2 1 -0 -1 -1 -2 -3 -3 -3 -3 -4 -4 -4 -5 -5 -6 -6 -6 -7 -7 -8 -8 -8 -8 -9
11 10 10 11 11 11 12 12 11 10 9 8 7 6 5 4 3 3 2 2 1 -0 -1 -1 -2 -3 -3 -3 -3 -4 -4 -4 -5 -5 -6 -6 -7 -7 -7 -8 -8 -8 -9 -9
9 9 9 9 9 9 9 10 10 10 10 9 8 7 5 4 3 3 2 1 0 -0 -1 -1 -2 -2 -3 -3 -3 -4 -4 -4 -5 -5 -6 -6 -7 -7 -7 -8 -8 -9 -9 -9

GEFSNGP_850_meantemp_036.txt.gz
Temperature
14 13 12 13 13 11 12 15 15 17 16 17 18 17 14 10 7 4 2 1 2 2 1 0 -1 -1 -2 -3 -3 -4 -5 -5 -6 -7 -7 -8 -8 -9 -9 -10 -11 -11 -11 -11
13 11 10 10 11 11 11 12 13 14 14 16 16 13 10 8 6 4 3 3 2 2 1 0 -0 -1 -2 -3 -3 -4 -5 -5 -6 -6 -7 -8 -8 -9 -9 -10 -10 -11 -11 -11
15 12 11 14 14 11 10 11 12 13 16 17 13 12 11 9 7 7 6 4 3 3 2 1 -0 -1 -2 -3 -3 -4 -5 -5 -6 -6 -7 -8 -8 -9 -9 -9 -10 -10 -11 -11
13 14 14 19 13 12 11 12 11 12 14 14 13 11 10 10 8 8 7 5 4 3 1 0 -1 -1 -2 -3 -3 -4 -5 -5 -6 -6 -7 -7 -8 -8 -9 -9 -10 -10 -10 -11
11 13 16 17 11 10 11 14 14 12 13 13 9 7 11 13 12 10 8 6 5 3 1 0 -1 -1 -2 -2 -3 -4 -5 -5 -6 -6 -7 -7 -7 -8 -8 -9 -9 -10 -10 -10
9 12 15 18 12 9 12 14 15 12 13 12 6 12 15 12 11 9 7 5 4 2 1 0 -1 -1 -2 -2 -3 -4 -4 -5 -6 -6 -6 -7 -7 -7 -8 -8 -9 -9 -10 -10
9 11 14 15 8 10 15 18 18 15 14 12 9 13 13 11 10 9 7 5 3 2 1 0 -1 -1 -2 -2 -3 -4 -4 -5 -5 -6 -6 -6 -7 -7 -7 -8 -8 -9 -10 -10
10 11 13 11 9 13 18 18 17 17 16 14 14 13 12 11 9 8 7 5 3 2 1 -0 -1 -1 -2 -2 -3 -4 -4 -5 -5 -6 -6 -6 -6 -6 -7 -7 -8 -9 -10 -10
12 15 15 11 14 16 17 17 18 17 16 15 13 13 12 11 9 8 6 5 3 2 1 -0 -1 -1 -2 -2 -3 -3 -4 -5 -5 -5 -5 -5 -6 -6 -6 -7 -8 -10 -10 -10
10 12 12 12 14 16 17 17 18 17 16 15 14 14 12 11 9 8 6 5 3 2 1 0 -1 -1 -2 -2 -3 -3 -4 -4 -5 -5 -5 -5 -5 -5 -6 -6 -8 -10 -10 -11
11 13 12 14 17 19 19 18 18 18 17 16 15 14 13 11 10 8 7 5 3 2 1 1 -0 -1 -2 -2 -3 -3 -4 -4 -4 -5 -4 -5 -5 -5 -6 -6 -7 -9 -10 -11
15 16 14 17 19 18 18 18 18 17 17 16 15 14 13 12 10 8 7 6 4 3 1 0 -1 -1 -2 -2 -3 -3 -4 -4 -4 -4 -4 -4 -4 -5 -5 -6 -6 -7 -8 -10
17 17 17 17 18 18 17 17 17 17 16 15 15 14 12 11 10 8 7 6 5 3 2 1 -0 -1 -2 -2 -3 -3 -3 -4 -4 -4 -4 -4 -5 -5 -5 -5 -6 -6 -7 -8
16 15 14 16 16 17 17 17 17 16 16 15 14 13 12 11 9 8 7 6 5 3 2 1 -0 -1 -2 -2 -2 -3 -3 -4 -4 -4 -4 -5 -5 -5 -5 -5 -6 -6 -7 -7
15 15 15 16 16 16 16 16 16 16 16 16 14 13 12 11 10 9 8 6 4 3 2 1 -0 -1 -2 -2 -2 -3 -3 -4 -4 -4 -5 -5 -5 -5 -5 -6 -6 -6 -6 -7
15 15 15 15 15 16 16 15 15 16 17 16 15 14 13 12 10 9 7 6 4 3 2 1 1 -0 -1 -2 -2 -3 -3 -4 -4 -4 -5 -5 -5 -5 -5 -6 -6 -6 -7 -7
13 13 13 13 14 15 15 15 16 16 16 16 15 14 12 10 9 8 7 6 5 4 3 2 1 -0 -1 -2 -2 -2 -3 -4 -4 -4 -5 -5 -5 -5 -6 -6 -6 -7 -7 -7
12 13 13 13 14 14 15 15 15 15 15 15 13 11 11 10 10 9 7 6 4 3 3 2 1 -0 -1 -2 -2 -3 -3 -3 -4 -4 -5 -5 -5 -5 -6 -6 -6 -7 -7 -7
14 14 14 14 14 13 13 13 13 13 12 11 11 10 11 11 10 9 7 6 5 4 3 2 1 -1 -1 -2 -2 -2 -3 -3 -4 -4 -5 -5 -5 -5 -6 -6 -6 -7 -7 -7
12 12 12 12 12 12 12 12 11 11 11 10 10 9 10 10 9 7 7 6 6 5 4 2 1 -0 -1 -1 -2 -2 -3 -3 -4 -4 -5 -5 -5 -6 -6 -6 -7 -7 -7 -8
11 11 10 10 10 11 11 10 10 10 10 10 10 10 10 9 8 7 6 6 6 5 4 3 1 0 -0 -1 -2 -2 -3 -3 -4 -4 -4 -5 -5 -6 -6 -6 -7 -7 -7 -8
9 9 9 9 9 9 10 10 9 9 9 9 10 9 8 7 7 7 7 6 6 5 4 3 1 1 -0 -1 -2 -2 -2 -3 -3 -4 -4 -5 -5 -6 -6 -6 -7 -7 -7 -8
8 8 8 8 8 8 9 9 9 9 8 8 8 8 8 7 7 7 7 6 5 5 4 3 2 1 -0 -1 -2 -2 -2 -3 -3 -4 -4 -5 -5 -6 -6 -6 -7 -7 -7 -8
7 7 8 8 8 8 8 8 8 8 8 7 6 5 5 4 5 5 6 6 5 5 4 3 2 1 -0 -1 -1 -2 -2 -3 -3 -3 -4 -5 -5 -5 -6 -6 -7 -7 -8 -8
6 6 6 7 7 7 7 7 7 7 7 6 5 4 3 3 3 4 4 5 5 4 4 3 2 1 -0 -1 -1 -1 -2 -2 -3 -3 -4 -4 -5 -5 -6 -6 -7 -7 -8 -8
5 5 5 6 6 6 6 6 6 6 6 5 4 3 2 1 1 1 2 3 4 4 4 3 2 0 -0 -0 -1 -1 -2 -2 -3 -3 -4 -4 -5 -5 -6 -6 -7 -7 -8 -8
3 3 4 4 5 5 5 5 5 5 5 4 3 2 1 0 -0 0 1 2 2 2 3 2 2 1 0 0 -1 -1 -2 -2 -3 -3 -3 -4 -5 -5 -6 -6 -7 -7 -8 -8

GEFSNGP_850_meantemp_042.txt.gz
Temperature
15 16 16 15 15 14 13 14 14 15 16 17 17 17 18 18 17 15 14 12 10 8 5 3 2 1 1 1 1 1 -0 -1 -1 -2 -3 -3 -4 -4 -5 -6 -7 -8 -8 -9
14 15 15 14 14 14 14 14 14 15 15 16 18 18 18 17 16 15 14 12 11 8 6 4 3 2 1 1 1 1 0 -1 -1 -2 -3 -3 -4 -4 -5 -5 -6 -7 -8 -9
12 15 14 13 14 13 13 13 13 13 14 15 16 16 17 17 16 15 15 13 12 10 8 5 4 3 2 2 1 1 -0 -1 -1 -2 -3 -3 -4 -4 -4 -5 -6 -7 -8 -9
12 14 12 15 16 16 14 14 13 13 14 14 15 17 17 17 16 16 15 14 13 11 9 6 4 3 2 2 1 1 -0 -1 -1 -2 -2 -3 -3 -4 -4 -5 -6 -7 -8 -8
11 11 12 15 15 14 13 13 14 13 14 14 16 14 15 18 17 17 15 14 13 11 9 7 5 3 2 2 1 1 0 -1 -1 -2 -2 -3 -3 -3 -4 -5 -5 -6 -7 -8
10 9 11 15 14 14 14 12 15 15 13 15 14 11 14 18 17 16 15 13 12 11 9 7 5 4 3 2 1 1 0 -0 -1 -2 -2 -3 -3 -3 -4 -4 -5 -6 -7 -8
8 8 11 14 12 12 13 15 19 18 18 17 13 14 17 17 16 15 14 13 11 10 9 8 6 4 3 2 2 1 0 -1 -1 -2 -2 -3 -3 -4 -4 -4 -5 -5 -6 -7
8 8 10 12 11 12 15 18 19 19 19 18 17 17 17 16 16 15 14 12 11 9 8 7 6 4 3 3 2 1 -0 -1 -1 -2 -2 -3 -3 -3 -4 -4 -5 -5 -6 -7
11 12 15 14 14 16 17 16 17 18 18 17 16 17 17 17 16 15 14 12 10 9 7 6 5 5 4 3 2 1 -0 -1 -1 -2 -2 -3 -3 -3 -4 -4 -5 -5 -6 -7
12 12 15 15 16 16 17 17 17 17 17 17 16 17 17 16 16 15 14 12 10 8 7 6 5 5 4 3 2 1 -0 -1 -1 -2 -2 -3 -3 -4 -4 -4 -5 -5 -6 -7
11 12 15 16 17 17 18 18 17 17 17 17 16 16 16 16 15 14 13 12 10 8 7 7 6 5 4 2 2 1 -0 -1 -1 -2 -2 -3 -3 -4 -4 -4 -5 -6 -6 -7
13 14 13 15 17 17 17 17 17 16 16 16 16 15 15 15 14 13 12 11 10 9 7 6 5 5 4 3 2 1 -0 -1 -1 -2 -2 -3 -3 -4 -4 -4 -5 -5 -6 -7
15 15 15 16 16 16 16 16 16 15 15 15 15 14 14 14 13 12 11 10 10 9 8 6 4 4 4 3 2 1 0 -0 -1 -2 -2 -3 -3 -4 -4 -4 -5 -5 -6 -7
14 14 14 15 15 15 15 15 15 14 14 14 13 13 12 12 12 11 11 11 10 8 7 5 4 4 4 3 2 1 0 -1 -1 -2 -2 -3 -3 -4 -4 -4 -5 -5 -6 -6
13 13 14 14 14 14 14 14 13 13 13 12 12 11 11 11 11 11 11 10 9 7 6 4 3 3 3 3 2 1 0 -0 -1 -2 -2 -3 -3 -4 -4 -4 -5 -5 -6 -6
12 12 12 12 12 12 12 12 11 11 11 11 10 10 10 10 10 10 10 9 8 7 7 5 4 3 3 3 2 1 0 -0 -1 -2 -2 -3 -3 -4 -4 -4 -5 -5 -6 -6
11 10 10 10 10 10 10 10 10 9 9 9 9 9 9 9 9 9 9 8 7 7 6 5 3 2 2 2 2 1 1 -0 -1 -2 -2 -3 -3 -4 -4 -4 -5 -5 -6 -6
9 9 9 9 8 8 8 8 8 8 8 8 8 8 8 8 8 8 7 6 6 5 5 3 1 0 1 1 1 1 1 -0 -1 -1 -2 -2 -3 -4 -4 -4 -5 -5 -6 -6
8 8 7 7 7 7 7 7 7 7 7 7 7 7 7 7 7 7 6 5 5 4 4 2 0 -1 -1 0 1 1 0 -0 -1 -1 -2 -2 -3 -4 -4 -4 -5 -5 -6 -6
6 6 6 6 6 6 6 6 6 6 6 6 6 6 7 7 7 6 5 5 5 4 3 1 -0 -1 -1 -1 -0 0 0 -0 -1 -1 -2 -2 -3 -3 -4 -4 -5 -5 -6 -6
5 5 5 5 5 5 5 5 5 5 5 5 5 5 6 6 6 6 5 5 5 3 1 -0 -1 -2 -2 -2 -2 -1 -0 -0 -1 -1 -1 -2 -3 -3 -4 -4 -5 -5 -6 -6
4 4 4 4 4 4 4 4 4 4 4 4 5 5 5 5 6 5 6 5 4 2 -0 -1 -2 -3 -3 -3 -3 -2 -1 -0 -1 -1 -1 -2 -3 -3 -4 -4 -5 -5 -6 -6
4 3 3 3 3 2 2 3 3 3 3 3 3 4 4 4 5 4 5 4 3 1 -1 -2 -3 -4 -4 -4 -3 -2 -1 -1 -0 -1 -1 -2 -2 -3 -3 -4 -4 -5 -6 -6
3 3 2 2 2 2 1 2 2 2 2 2 3 3 3 4 4 4 4 3 2 1 -1 -3 -4 -5 -6 -5 -4 -3 -2 -1 -0 -1 -1 -1 -2 -3 -3 -4 -4 -5 -6 -6
2 2 1 1 1 1 1 1 1 1 1 1 2 2 3 3 3 3 3 3 2 -0 -2 -4 -5 -5 -6 -6 -5 -4 -2 -0 -0 -0 -1 -1 -2 -3 -3 -4 -4 -5 -5 -6
1 0 0 0 -0 -0 0 0 0 0 1 1 1 2 2 2 2 2 2 2 1 -1 -3 -4 -5 -6 -7 -6 -6 -4 -2 -1 -0 -0 -1 -1 -2 -2 -3 -4 -4 -5 -5 -6
-0 -0 -1 -1 -1 -1 -1 -1 -1 -0 -0 0 0 1 1 1 1 1 1 1 0 -1 -3 -5 -5 -6 -7 -7 -6 -5 -3 -2 -1 -0 -1 -1 -2 -2 -3 -3 -4 -5 -5 -6

GEFSNGP_850_meantemp_048.txt.gz
Temperature
10 11 11 11 12 11 11 12 12 14 14 16 17 14 15 17 17 17 17 18 17 17 17 16 15 14 12 10 8 6 4 3 2 2 1 -0 -1 -1 -2 -2 -3 -4 -4 -4
10 11 10 10 11 12 12 12 12 13 14 16 16 15 14 15 16 16 17 17 17 17 16 16 15 14 13 11 9 7 5 4 3 2 1 -0 -1 -2 -2 -2 -3 -4 -4 -4
8 10 10 10 12 13 11 10 11 12 14 14 13 12 13 15 16 16 17 17 17 17 16 16 15 14 13 12 10 7 5 4 2 1 1 -0 -1 -2 -2 -2 -3 -3 -4 -4
7 10 10 13 13 12 12 12 11 12 13 13 12 14 15 16 16 17 17 17 17 16 16 15 15 14 13 11 9 7 6 4 3 2 1 -0 -1 -1 -2 -3 -3 -3 -4 -4
6 7 9 10 12 12 11 12 12 12 13 13 13 12 15 18 18 17 17 17 16 15 15 14 14 13 12 11 9 8 6 4 3 2 1 -0 -1 -1 -2 -3 -3 -3 -4 -4
6 6 8 12 13 13 13 12 14 12 12 12 11 11 14 18 17 17 16 16 15 15 14 14 14 12 11 11 9 8 7 5 4 2 1 -0 -1 -1 -2 -3 -3 -3 -4 -4
6 6 8 10 12 13 13 14 15 15 14 13 11 13 16 16 16 16 15 15 14 14 14 14 13 12 11 10 9 9 7 5 3 2 1 -0 -1 -2 -2 -3 -3 -3 -4 -4
5 5 8 10 10 11 13 15 15 15 15 15 14 15 15 15 15 15 14 14 13 13 13 13 12 11 10 10 9 8 6 4 3 2 0 -0 -1 -2 -2 -2 -3 -3 -4 -4
7 10 12 12 12 14 14 14 15 14 14 14 14 14 14 14 14 13 13 13 13 12 12 12 12 11 10 10 8 6 5 4 3 1 0 -1 -1 -2 -2 -2 -3 -3 -4 -4
7 7 10 12 13 14 14 13 13 13 13 13 13 13 13 13 12 12 12 12 12 12 11 12 11 11 10 8 7 5 4 3 2 1 0 -1 -1 -2 -2 -2 -2 -3 -4 -4
8 8 10 12 13 13 13 12 12 12 12 12 11 11 11 11 11 11 11 11 11 11 11 11 10 10 9 8 6 5 3 2 2 1 0 -1 -1 -1 -2 -2 -2 -3 -4 -4
9 10 10 11 11 11 11 11 10 10 10 10 10 10 10 10 10 9 10 10 10 10 10 10 10 9 8 7 6 4 2 1 1 0 -0 -1 -1 -2 -2 -3 -3 -3 -4 -4
10 10 10 10 10 10 10 9 9 9 9 9 9 9 8 8 9 9 9 9 9 9 9 9 9 8 8 6 5 3 2 1 0 0 -0 -1 -1 -1 -2 -3 -3 -4 -4 -5
9 9 9 9 8 8 8 8 8 8 8 7 7 8 7 7 8 8 8 8 8 8 9 9 8 8 6 5 4 3 1 -0 -1 -1 -0 -0 -1 -1 -2 -3 -3 -3 -4 -5
8 8 7 7 7 7 7 7 7 7 7 7 7 7 6 6 6 6 7 7 7 8 8 8 7 7 5 4 3 1 0 -1 -2 -2 -1 -1 -1 -1 -2 -3 -3 -4 -4 -5
6 6 6 6 6 5 5 5 5 5 5 5 5 5 5 5 5 6 6 6 6 6 7 7 7 6 5 3 2 0 -1 -2 -3 -3 -3 -2 -2 -2 -2 -3 -3 -4 -4 -5
6 5 5 5 4 4 4 4 4 4 4 4 4 4 4 4 4 5 5 5 5 5 6 6 6 5 4 3 1 -0 -1 -3 -4 -5 -4 -3 -2 -2 -2 -3 -3 -4 -4 -5
5 5 4 4 4 4 4 4 4 3 3 3 3 3 3 2 2 3 3 3 4 4 5 5 5 4 4 3 1 -1 -2 -3 -4 -5 -5 -4 -3 -2 -2 -3 -3 -4 -4 -5
5 4 4 4 4 3 3 3 3 3 3 2 2 2 2 2 2 2 2 2 2 3 4 4 3 3 3 2 -0 -2 -3 -4 -5 -5 -5 -5 -4 -3 -2 -3 -3 -4 -4 -5
4 4 4 3 3 3 3 3 3 3 2 2 1 1 1 1 1 1 1 1 2 2 2 2 2 2 2 1 -1 -2 -4 -4 -5 -6 -6 -6 -4 -3 -2 -3 -3 -4 -4 -5
4 3 3 3 3 3 3 3 2 2 2 1 1 0 0 0 0 0 -0 -0 1 1 1 1 1 1 1 0 -2 -3 -4 -5 -6 -6 -6 -6 -5 -4 -3 -3 -4 -4 -4 -5
3 3 3 3 3 3 2 2 2 1 1 1 0 0 -0 -0 -0 -0 -0 -0 0 0 0 1 1 1 0 -1 -2 -4 -5 -6 -6 -7 -7 -6 -5 -4 -3 -3 -3 -4 -4 -4
2 2 2 2 2 2 2 2 1 1 0 -0 -0 -0 -1 -1 -1 -1 -1 -0 -0 -0 -0 0 -0 -0 -1 -2 -3 -4 -5 -6 -7 -7 -7 -6 -6 -4 -3 -3 -3 -4 -4 -4
1 1 1 1 1 1 1 1 0 -0 -0 -1 -1 -1 -1 -1 -1 -1 -1 -1 -1 -1 -1 -1 -1 -1 -2 -3 -4 -5 -6 -7 -7 -8 -7 -7 -6 -5 -4 -3 -3 -4 -4 -4
1 0 0 0 -0 -0 -0 -1 -1 -1 -1 -1 -1 -1 -1 -1 -1 -1 -1 -1 -1 -1 -1 -1 -1 -2 -2 -3 -4 -5 -6 -7 -7 -8 -8 -7 -6 -5 -4 -3 -3 -4 -4 -4
-0 -1 -1 -1 -1 -1 -1 -2 -2 -2 -2 -3 -2 -2 -1 -1 -1 -1 -1 -1 -1 -1 -1 -1 -2 -2 -2 -3 -4 -5 -6 -7 -8 -8 -8 -7 -6 -5 -4 -4 -4 -4 -4 -4
-1 -1 -1 -1 -1 -2 -2 -3 -3 -3 -3 -3 -3 -2 -2 -1 -1 -1 -1 -1 -1 -1 -1 -2 -2 -2 -3 -4 -5 -6 -6 -7 -7 -8 -8 -7 -6 -5 -4 -4 -4 -4 -4 -4